When you browse on this site, cookies collect data to enhance your experience and personalize the content and advertising you see.
Visit our Privacy Policy to learn more. By continuing to use the site, you agree to this use of cookies and data.
  • In Switzerland
  • List of Countries
  • For 7 days
  • Water Temperature
  • Satellite Maps
  • Weather Map
  • Weather Widgets
  • user-avatar
    Login

    Hourly Weather Bautzen

    Today, 18 July, Thursday

    Time Temperature Precipitation Wind Pressure Humidity
    00:00 +14°C° 0 mm 0 mps 742 mmHg 78%
    01:00 +13°C° 0 mm 0 mps 742 mmHg 80%
    02:00 +13°C° 0 mm 0 mps 742 mmHg 81%
    03:00 +13°C° 0 mm 0 mps 742 mmHg 83%
    04:00 +12°C° 0 mm 0 mps 742 mmHg 84%
    05:00 +14°C° 0 mm 0 mps 742 mmHg 79%
    06:00 +16°C° 0 mm 0 mps 742 mmHg 74%
    07:00 +17°C° 0 mm 0 mps 742 mmHg 69%
    08:00 +19°C° 0 mm 0 mps 742 mmHg 63%
    09:00 +23°C° 0 mm 1 mps 742 mmHg 58%
    10:00 +24°C° 0 mm 1 mps 742 mmHg 52%
    11:00 +25°C° 0 mm 1 mps 742 mmHg 50%
    12:00 +25°C° 0 mm 1 mps 742 mmHg 49%
    13:00 +26°C° 0 mm 1 mps 742 mmHg 47%
    14:00 +26°C° 0.1 mm 1 mps 742 mmHg 48%
    15:00 +26°C° 0.1 mm 1 mps 741 mmHg 49%
    16:00 +26°C° 0.1 mm 1 mps 741 mmHg 50%
    17:00 +25°C° 0.1 mm 1 mps 741 mmHg 55%
    18:00 +24°C° 0.1 mm 1 mps 741 mmHg 60%
    19:00 +23°C° 0.1 mm 1 mps 741 mmHg 65%
    20:00 +22°C° 0 mm 1 mps 741 mmHg 67%
    21:00 +20°C° 0 mm 1 mps 742 mmHg 70%
    22:00 +18°C° 0 mm 2 mps 742 mmHg 72%
    23:00 +18°C° 0 mm 2 mps 742 mmHg 73%

    Tomorrow, 19 July, Friday

    Time Temperature Precipitation Wind Pressure Humidity
    00:00 +18°C° 0 mm 2 mps 742 mmHg 73%
    01:00 +18°C° 0 mm 2 mps 742 mmHg 74%
    02:00 +17°C° 0 mm 2 mps 742 mmHg 76%
    03:00 +17°C° 0 mm 2 mps 742 mmHg 78%
    04:00 +16°C° 0 mm 2 mps 742 mmHg 81%
    05:00 +17°C° 0 mm 2 mps 742 mmHg 77%
    06:00 +19°C° 0 mm 2 mps 742 mmHg 74%
    07:00 +20°C° 0 mm 2 mps 743 mmHg 71%
    08:00 +21°C° 0.1 mm 2 mps 743 mmHg 67%
    09:00 +23°C° 0.1 mm 2 mps 743 mmHg 64%
    10:00 +24°C° 0.1 mm 2 mps 743 mmHg 61%
    11:00 +24°C° 0.3 mm 2 mps 743 mmHg 60%
    12:00 +25°C° 0.3 mm 2 mps 743 mmHg 58%
    13:00 +26°C° 0.3 mm 3 mps 743 mmHg 57%
    14:00 +26°C° 0.2 mm 3 mps 743 mmHg 55%
    15:00 +27°C° 0.2 mm 2 mps 743 mmHg 53%
    16:00 +27°C° 0.2 mm 2 mps 743 mmHg 51%
    17:00 +26°C° 0.1 mm 2 mps 743 mmHg 56%
    18:00 +25°C° 0.1 mm 2 mps 743 mmHg 61%
    19:00 +24°C° 0.1 mm 1 mps 743 mmHg 67%
    20:00 +23°C° 0 mm 1 mps 743 mmHg 70%
    21:00 +21°C° 0 mm 1 mps 743 mmHg 74%
    22:00 +20°C° 0 mm 1 mps 744 mmHg 78%
    23:00 +19°C° 0 mm 1 mps 744 mmHg 80%

    Day after tomorrow, 20 July, Saturday

    Time Temperature Precipitation Wind Pressure Humidity
    00:00 +19°C° 0 mm 1 mps 744 mmHg 81%
    01:00 +19°C° 0 mm 1 mps 744 mmHg 83%
    02:00 +18°C° 0 mm 1 mps 744 mmHg 83%
    03:00 +18°C° 0 mm 1 mps 744 mmHg 84%
    04:00 +18°C° 0 mm 1 mps 744 mmHg 85%
    05:00 +18°C° 0 mm 2 mps 744 mmHg 81%
    06:00 +20°C° 0 mm 2 mps 744 mmHg 78%
    07:00 +21°C° 0 mm 2 mps 744 mmHg 75%
    08:00 +23°C° 0 mm 2 mps 744 mmHg 69%
    09:00 +25°C° 0 mm 2 mps 744 mmHg 63%
    10:00 +26°C° 0 mm 3 mps 745 mmHg 57%
    11:00 +27°C° 0 mm 3 mps 744 mmHg 53%
    12:00 +29°C° 0 mm 3 mps 744 mmHg 49%
    13:00 +30°C° 0 mm 3 mps 744 mmHg 45%
    14:00 +30°C° 0 mm 3 mps 744 mmHg 46%
    15:00 +30°C° 0 mm 3 mps 744 mmHg 46%
    16:00 +30°C° 0 mm 2 mps 744 mmHg 47%
    17:00 +29°C° 0 mm 2 mps 743 mmHg 52%
    18:00 +27°C° 0 mm 2 mps 743 mmHg 58%
    19:00 +26°C° 0 mm 2 mps 743 mmHg 63%
    20:00 +25°C° 0.4 mm 2 mps 744 mmHg 69%
    21:00 +23°C° 0.4 mm 2 mps 744 mmHg 76%
    22:00 +20°C° 0.4 mm 2 mps 744 mmHg 82%
    23:00 +20°C° 0 mm 2 mps 744 mmHg 82%

    21 July, Sunday

    Time Temperature Precipitation Wind Pressure Humidity
    00:00 +20°C° 0 mm 2 mps 744 mmHg 83%
    01:00 +20°C° 0 mm 2 mps 744 mmHg 84%
    02:00 +20°C° 0.1 mm 2 mps 744 mmHg 84%
    03:00 +20°C° 0.1 mm 2 mps 744 mmHg 84%
    04:00 +20°C° 0.1 mm 2 mps 744 mmHg 84%
    05:00 +21°C° 0.1 mm 3 mps 744 mmHg 82%
    06:00 +21°C° 0.1 mm 3 mps 744 mmHg 79%
    07:00 +22°C° 0.1 mm 3 mps 744 mmHg 77%
    08:00 +25°C° 0.1 mm 4 mps 745 mmHg 70%
    09:00 +26°C° 0.1 mm 5 mps 745 mmHg 63%
    10:00 +28°C° 0.1 mm 5 mps 745 mmHg 55%
    11:00 +28°C° 0.1 mm 6 mps 746 mmHg 54%
    12:00 +28°C° 0.1 mm 6 mps 746 mmHg 52%
    13:00 +29°C° 0.1 mm 6 mps 746 mmHg 50%
    14:00 +28°C° 0 mm 6 mps 746 mmHg 51%
    15:00 +28°C° 0 mm 6 mps 746 mmHg 52%
    16:00 +27°C° 0 mm 6 mps 746 mmHg 52%
    17:00 +26°C° 0 mm 5 mps 747 mmHg 57%
    18:00 +25°C° 0 mm 4 mps 747 mmHg 61%
    19:00 +24°C° 0 mm 3 mps 747 mmHg 66%
    20:00 +23°C° 0 mm 2 mps 747 mmHg 71%
    21:00 +20°C° 0 mm 2 mps 748 mmHg 76%
    22:00 +20°C° 0 mm 1 mps 748 mmHg 82%
    23:00 +20°C° 0 mm 1 mps 748 mmHg 83%

    22 July, Monday

    Time Temperature Precipitation Wind Pressure Humidity
    00:00 +18°C° 0 mm 2 mps 749 mmHg 85%
    01:00 +18°C° 0 mm 2 mps 749 mmHg 86%
    02:00 +19°C° 0 mm 1 mps 749 mmHg 88%
    03:00 +18°C° 0 mm 1 mps 749 mmHg 90%
    04:00 +18°C° 0 mm 1 mps 749 mmHg 93%
    05:00 +19°C° 0 mm 1 mps 749 mmHg 88%
    06:00 +19°C° 0 mm 2 mps 750 mmHg 84%
    07:00 +20°C° 0 mm 2 mps 750 mmHg 79%
    08:00 +23°C° 0 mm 2 mps 750 mmHg 73%
    09:00 +24°C° 0 mm 2 mps 750 mmHg 67%
    10:00 +25°C° 0 mm 2 mps 750 mmHg 61%
    11:00 +26°C° 0.1 mm 2 mps 750 mmHg 58%
    12:00 +27°C° 0.1 mm 2 mps 750 mmHg 55%
    13:00 +28°C° 0.1 mm 2 mps 750 mmHg 52%
    14:00 +28°C° 0.1 mm 2 mps 750 mmHg 52%
    15:00 +28°C° 0.1 mm 2 mps 749 mmHg 52%
    16:00 +28°C° 0.1 mm 2 mps 749 mmHg 52%
    17:00 +27°C° 0.1 mm 2 mps 749 mmHg 58%
    18:00 +26°C° 0.1 mm 2 mps 749 mmHg 63%
    19:00 +25°C° 0.1 mm 1 mps 749 mmHg 68%
    20:00 +23°C° 0 mm 1 mps 749 mmHg 71%
    21:00 +22°C° 0 mm 1 mps 749 mmHg 73%
    22:00 +20°C° 0 mm 1 mps 750 mmHg 75%
    23:00 +19°C° 0 mm 1 mps 750 mmHg 78%

    23 July, Tuesday

    Time Temperature Precipitation Wind Pressure Humidity
    00:00 +18°C° 0 mm 1 mps 750 mmHg 80%
    01:00 +18°C° 0 mm 1 mps 749 mmHg 83%
    02:00 +16°C° 0 mm 1 mps 749 mmHg 85%
    03:00 +16°C° 0 mm 1 mps 749 mmHg 87%
    04:00 +15°C° 0 mm 1 mps 749 mmHg 89%
    05:00 +16°C° 0 mm 1 mps 749 mmHg 83%
    06:00 +19°C° 0 mm 1 mps 749 mmHg 77%
    07:00 +20°C° 0 mm 1 mps 749 mmHg 71%
    08:00 +22°C° 0 mm 1 mps 749 mmHg 62%
    09:00 +23°C° 0 mm 2 mps 749 mmHg 53%
    10:00 +25°C° 0 mm 2 mps 749 mmHg 43%
    11:00 +26°C° 0 mm 2 mps 749 mmHg 41%
    12:00 +27°C° 0 mm 2 mps 749 mmHg 38%
    13:00 +28°C° 0 mm 3 mps 748 mmHg 36%
    14:00 +28°C° 0 mm 3 mps 748 mmHg 37%
    15:00 +28°C° 0 mm 2 mps 748 mmHg 38%
    16:00 +29°C° 0 mm 2 mps 747 mmHg 39%
    17:00 +27°C° 0 mm 2 mps 747 mmHg 46%
    18:00 +26°C° 0 mm 2 mps 747 mmHg 53%
    19:00 +25°C° 0 mm 2 mps 747 mmHg 59%
    20:00 +23°C° 0 mm 2 mps 747 mmHg 66%
    21:00 +21°C° 0 mm 2 mps 747 mmHg 73%
    22:00 +19°C° 0 mm 2 mps 747 mmHg 80%
    23:00 +18°C° 0 mm 2 mps 747 mmHg 83%
    Show more